FW9917 Weather Reports


Display with metric or nautical units.
time (UTC)temp
F
wind
direction
speed
MPH
gust
MPH
rain 1hr
in
rain 24hr
in
rain mn
in
humidity
%
barometer
mb
20260506154056 45 15 0.0 2.0 0.00 0.00 0.00 94 1024.1
20260506153555 45 0 0.0 2.0 0.00 0.00 0.00 95 1024.1
20260506153055 44 0 0.0 2.0 0.00 0.00 0.00 96 1024.1
20260506152555 44 0 0.0 1.0 0.00 0.00 0.00 96 1024.0
20260506152056 44 0 0.0 1.0 0.00 0.00 0.00 98 1024.0
20260506151558 43 0 0.0 1.0 0.00 0.00 0.00 98 1024.0
20260506151056 43 0 0.0 0.0 0.00 0.00 0.00 98 1023.9
20260506150556 42 0 0.0 0.0 0.00 0.00 0.00 97 1023.8
20260506150055 42 0 0.0 0.0 0.00 0.00 0.00 97 1023.8
20260506145558 42 0 0.0 1.0 0.00 0.02 0.00 97 1023.8
20260506145056 41 0 0.0 1.0 0.00 0.02 0.00 97 1023.8
20260506144603 41 0 0.0 1.0 0.00 0.02 0.00 97 1023.7
20260506144056 41 0 0.0 1.0 0.00 0.02 0.00 97 1023.7
20260506143556 41 0 0.0 1.0 0.00 0.02 0.00 97 1023.7
20260506143105 40 0 0.0 1.0 0.00 0.02 0.00 97 1023.6
20260506142556 40 0 0.0 2.0 0.00 0.02 0.00 96 1023.6
20260506142055 39 0 0.0 2.0 0.00 0.02 0.00 96 1023.6
20260506141611 39 0 0.0 2.0 0.00 0.02 0.00 96 1023.5
20260506141057 39 0 0.0 2.0 0.00 0.02 0.00 96 1023.3
20260506140558 39 0 0.0 1.0 0.00 0.02 0.00 95 1023.2
20260506140101 39 0 0.0 0.0 0.00 0.02 0.00 95 1023.1
20260506135556 39 0 0.0 0.0 0.00 0.03 0.00 95 1023.1
20260506135056 39 0 0.0 2.0 0.00 0.03 0.00 95 1023.0
20260506134557 38 0 0.0 2.0 0.00 0.03 0.00 95 1022.9
20260506134056 38 84 0.0 2.0 0.00 0.03 0.00 95 1022.8
20260506133559 38 0 0.0 2.0 0.00 0.03 0.00 95 1022.8
20260506133107 38 0 0.0 2.0 0.00 0.03 0.00 95 1022.8
20260506132556 38 0 0.0 2.0 0.00 0.03 0.00 95 1022.6
20260506132056 38 82 0.0 2.0 0.00 0.03 0.00 94 1022.7
20260506131558 38 81 0.0 2.0 0.00 0.03 0.00 94 1022.6
20260506131057 39 0 0.0 2.0 0.00 0.03 0.00 94 1022.5
20260506130556 39 82 0.0 2.0 0.00 0.03 0.00 94 1022.4
20260506130055 39 0 1.0 2.0 0.00 0.03 0.00 95 1022.3
20260506125556 39 85 0.0 2.0 0.00 0.05 0.00 95 1022.3
20260506125056 39 0 0.0 2.0 0.00 0.05 0.00 95 1022.3
20260506124555 39 0 0.0 2.0 0.00 0.05 0.00 95 1022.2
20260506124056 39 0 0.0 2.0 0.00 0.05 0.00 94 1022.1
20260506123556 39 84 0.0 2.0 0.00 0.05 0.00 94 1022.1
20260506123056 39 86 0.0 2.0 0.00 0.05 0.00 94 1021.9
20260506122556 39 85 0.0 2.0 0.00 0.05 0.00 95 1021.9
20260506122057 39 86 0.0 3.0 0.00 0.05 0.00 95 1021.9
20260506121602 39 85 0.0 3.0 0.00 0.05 0.00 95 1021.9
20260506121056 39 82 0.0 3.0 0.00 0.05 0.00 95 1021.9
20260506120556 39 84 0.0 2.0 0.00 0.05 0.00 94 1021.7
20260506120118 39 0 0.0 2.0 0.00 0.05 0.00 94 1021.6
20260506115556 39 0 0.0 2.0 0.00 0.06 0.00 94 1021.5
20260506115056 39 0 0.0 2.0 0.00 0.06 0.00 94 1021.5
20260506114555 39 73 0.0 2.0 0.00 0.06 0.00 94 1021.4
20260506114055 39 84 0.0 2.0 0.00 0.06 0.00 94 1021.4
20260506113556 39 82 0.0 3.0 0.00 0.06 0.00 94 1021.4
20260506113103 39 0 0.0 3.0 0.00 0.06 0.00 94 1021.4
20260506112557 39 0 0.0 3.0 0.00 0.06 0.00 94 1021.4
20260506112056 39 0 0.0 2.0 0.00 0.06 0.00 94 1021.3
20260506111555 39 83 0.0 2.0 0.00 0.06 0.00 94 1021.3
20260506111056 39 85 0.0 2.0 0.00 0.06 0.00 94 1021.2
20260506110558 39 80 0.0 2.0 0.00 0.06 0.00 94 1021.3
20260506110101 39 73 0.0 2.0 0.00 0.06 0.00 94 1021.0
20260506105556 40 0 0.0 2.0 0.00 0.08 0.00 94 1021.0
20260506105056 40 0 0.0 2.0 0.00 0.08 0.00 94 1020.9
20260506104556 40 0 0.0 2.0 0.00 0.08 0.00 94 1020.9
20260506104055 40 77 0.0 2.0 0.00 0.08 0.00 93 1020.8
20260506103556 40 0 0.0 2.0 0.00 0.08 0.00 93 1020.7
20260506103057 40 0 0.0 2.0 0.00 0.08 0.00 93 1020.6
20260506102557 40 76 0.0 2.0 0.00 0.08 0.00 94 1020.5
20260506102056 40 63 0.0 2.0 0.00 0.08 0.00 93 1020.5
20260506101558 40 0 0.0 2.0 0.00 0.08 0.00 93 1020.4
20260506101056 40 0 0.0 2.0 0.00 0.08 0.00 93 1020.3
20260506100555 40 76 0.0 2.0 0.00 0.08 0.00 93 1020.5
20260506100057 40 62 0.0 2.0 0.00 0.08 0.00 93 1020.5
20260506095556 40 0 0.0 2.0 0.00 0.12 0.00 93 1020.4
20260506095055 40 0 1.0 2.0 0.00 0.12 0.00 93 1020.2
20260506094557 40 84 0.0 3.0 0.00 0.12 0.00 93 1020.1
20260506094057 40 0 0.0 3.0 0.00 0.12 0.00 93 1020.2
20260506093556 40 84 0.0 2.0 0.00 0.12 0.00 93 1020.2
20260506093057 41 82 0.0 2.0 0.00 0.12 0.00 93 1020.2
20260506092556 41 85 0.0 2.0 0.00 0.12 0.00 92 1020.2
20260506092056 41 81 0.0 3.0 0.00 0.12 0.00 93 1020.0
20260506091558 41 42 0.0 3.0 0.00 0.12 0.00 93 1020.1
20260506091056 41 83 1.0 3.0 0.00 0.12 0.00 93 1020.1
20260506090555 41 85 1.0 3.0 0.00 0.12 0.00 93 1020.1
20260506090056 41 89 0.0 2.0 0.00 0.12 0.00 92 1020.1
20260506085556 41 0 1.0 2.0 0.00 0.17 0.00 93 1020.1
20260506085056 41 85 0.0 2.0 0.00 0.17 0.00 92 1020.1
20260506084556 41 0 0.0 2.0 0.00 0.17 0.00 93 1020.1
20260506084056 41 79 0.0 2.0 0.00 0.17 0.00 93 1020.1
20260506083556 41 107 0.0 2.0 0.00 0.17 0.00 92 1020.1
20260506083057 41 0 0.0 3.0 0.00 0.17 0.00 92 1020.0
20260506082557 41 0 0.0 3.0 0.00 0.17 0.00 92 1020.0
20260506082056 41 86 1.0 3.0 0.00 0.17 0.00 92 1020.0
20260506081556 41 80 0.0 2.0 0.00 0.17 0.00 92 1020.0
20260506081056 41 86 0.0 2.0 0.00 0.17 0.00 92 1020.0
20260506080556 41 0 0.0 2.0 0.00 0.17 0.00 92 1020.0
20260506073059 42 69 0.0 3.0 0.00 0.32 0.00 92 1019.7
20260506072557 42 0 0.0 3.0 0.00 0.32 0.00 92 1019.7
20260506072057 42 84 0.0 3.0 0.00 0.32 0.00 92 1019.5
20260506071556 42 0 0.0 3.0 0.00 0.32 0.00 92 1019.4
20260506071057 42 84 0.0 2.0 0.00 0.32 0.00 92 1019.4
20260506070556 42 78 0.0 2.0 0.00 0.32 0.00 91 1019.3
20260506070115 43 0 0.0 2.0 0.00 0.32 0.00 91 1019.3
20260506062100 44 77 0.0 2.0 0.00 0.37 0.32 90 1019.0
20260506061602 44 85 0.0 2.0 0.00 0.37 0.32 90 1018.9
20260506061057 44 0 0.0 2.0 0.00 0.37 0.32 91 1018.9
20260506060556 44 86 0.0 2.0 0.00 0.37 0.32 91 1018.8
20260506060104 44 86 0.0 2.0 0.00 0.37 0.32 90 1018.8
20260506051056 45 0 0.0 2.0 0.00 0.41 0.32 90 1018.4
20260506050556 44 84 0.0 2.0 0.00 0.41 0.32 90 1018.4
20260506050110 44 0 0.0 2.0 0.00 0.41 0.32 90 1018.3
20260506045057 44 82 0.0 2.0 0.00 0.46 0.32 90 1018.3
20260506044602 44 0 0.0 2.0 0.00 0.46 0.32 90 1018.3
20260506044057 44 78 0.0 2.0 0.00 0.46 0.32 90 1018.2
20260506043558 44 0 0.0 1.0 0.00 0.46 0.32 90 1018.2
20260506043054 44 0 0.0 1.0 0.00 0.46 0.32 90 1018.1
20260506042556 44 0 0.0 1.0 0.00 0.46 0.32 89 1018.0
20260506042057 44 78 0.0 2.0 0.00 0.46 0.32 90 1018.0
20260506041557 44 0 0.0 2.0 0.00 0.46 0.32 89 1017.8
20260506041055 45 0 0.0 2.0 0.00 0.46 0.32 89 1017.8
20260506040556 45 79 0.0 2.0 0.00 0.46 0.32 89 1017.7
20260506040100 45 0 0.0 2.0 0.00 0.46 0.32 89 1017.6
20260506035556 45 0 0.0 2.0 0.00 0.49 0.32 88 1017.6
20260506035056 45 83 0.0 1.0 0.00 0.49 0.32 88 1017.6
20260506034559 45 0 0.0 2.0 0.00 0.49 0.32 88 1017.4
20260506034057 45 83 0.0 2.0 0.00 0.49 0.32 87 1017.2
20260506033558 46 0 0.0 2.0 0.00 0.49 0.32 87 1017.2
20260506033055 46 83 0.0 1.0 0.00 0.49 0.32 87 1017.1
20260506032554 46 0 0.0 1.0 0.00 0.49 0.32 87 1017.2
20260506032056 46 0 0.0 2.0 0.00 0.49 0.32 87 1017.1
20260506031602 46 0 0.0 2.0 0.00 0.49 0.32 86 1017.0
20260506031056 46 0 0.0 2.0 0.00 0.49 0.32 85 1016.8
20260506030556 47 0 0.0 2.0 0.00 0.49 0.32 85 1016.7
20260506030113 47 0 0.0 2.0 0.00 0.49 0.32 84 1016.7
20260506025556 47 0 0.0 2.0 0.00 0.51 0.32 83 1016.6
20260506025056 48 84 0.0 2.0 0.00 0.51 0.32 83 1016.6
20260506024555 48 0 0.0 1.0 0.00 0.51 0.32 83 1016.5
20260506024056 48 0 0.0 2.0 0.00 0.51 0.32 81 1016.3
20260506023555 49 0 0.0 2.0 0.00 0.51 0.32 81 1016.4
20260506023059 49 84 0.0 1.0 0.00 0.51 0.32 80 1016.4
20260506022558 50 0 0.0 0.0 0.00 0.51 0.32 79 1016.3
20260506022056 50 0 0.0 0.0 0.00 0.51 0.32 79 1016.3
20260506021607 51 0 0.0 2.0 0.00 0.51 0.32 78 1016.2
20260506021056 51 0 0.0 2.0 0.00 0.51 0.32 77 1016.2
20260506020556 52 349 0.0 0.0 0.00 0.51 0.32 74 1016.2
20260506020056 52 0 0.0 0.0 0.00 0.51 0.32 71 1016.1
20260506015556 52 0 0.0 0.0 0.00 0.58 0.32 71 1016.2
20260506015058 53 0 0.0 2.0 0.00 0.58 0.32 71 1016.1
20260506014602 53 0 0.0 2.0 0.00 0.58 0.32 71 1016.0
20260506014056 53 0 0.0 2.0 0.00 0.58 0.32 69 1016.0
20260506013554 54 0 0.0 3.0 0.00 0.58 0.32 68 1015.9
20260506013058 54 0 0.0 3.0 0.00 0.58 0.32 66 1015.8
20260506012556 55 15 1.0 4.0 0.00 0.58 0.32 62 1015.8
20260506012057 55 14 0.0 4.0 0.00 0.58 0.32 62 1015.7
20260506011558 55 14 1.0 4.0 0.00 0.58 0.32 64 1015.7
20260506011056 55 0 0.0 3.0 0.00 0.58 0.32 66 1015.6
20260506010557 55 0 0.0 3.0 0.00 0.58 0.32 64 1015.6
20260506010100 55 13 0.0 2.0 0.00 0.58 0.32 63 1015.5
20260506005557 55 0 0.0 3.0 0.00 0.71 0.32 63 1015.6
20260506005056 54 0 0.0 3.0 0.00 0.71 0.32 64 1015.6
20260506004626 55 14 1.0 3.0 0.00 0.71 0.32 67 1015.6
20260506004055 55 14 1.0 3.0 0.00 0.71 0.32 62 1015.6
20260506003556 55 14 1.0 3.0 0.00 0.71 0.32 66 1015.6
20260506003100 56 15 0.0 3.0 0.00 0.71 0.32 63 1015.6
20260506002556 56 14 0.0 4.0 0.00 0.71 0.32 61 1015.7
20260506002059 57 14 1.0 5.0 0.00 0.71 0.32 62 1015.8
20260506001556 57 0 1.0 5.0 0.00 0.71 0.32 63 1015.7
20260506001055 57 15 1.0 4.0 0.00 0.71 0.32 61 1015.6
20260506000556 57 14 0.0 4.0 0.00 0.71 0.32 64 1015.6
20260506000057 57 16 1.0 7.0 0.00 0.71 0.32 62 1015.5
20260505235558 57 14 0.0 7.0 0.00 0.74 0.32 64 1015.6
20260505235056 57 0 1.0 5.0 0.00 0.74 0.32 66 1015.6
20260505234615 57 0 2.0 5.0 0.00 0.74 0.32 65 1015.5
20260505234055 57 14 0.0 5.0 0.00 0.74 0.32 66 1015.5
20260505233556 57 15 1.0 4.0 0.00 0.74 0.32 65 1015.5
20260505233057 57 16 1.0 4.0 0.00 0.74 0.32 66 1015.5
20260505232556 57 14 0.0 7.0 0.00 0.74 0.32 66 1015.5
20260505232056 57 15 0.0 7.0 0.00 0.74 0.32 65 1015.6
20260505231558 57 15 2.0 5.0 0.00 0.74 0.32 66 1015.6
20260505231056 57 0 1.0 4.0 0.00 0.74 0.32 68 1015.6
20260505230556 56 14 0.0 4.0 0.00 0.74 0.32 71 1015.6
20260505230055 55 15 1.0 6.0 0.00 0.74 0.32 71 1015.7
20260505225556 55 16 1.0 7.0 0.00 0.85 0.32 72 1015.8
20260505225056 55 13 1.0 7.0 0.00 0.85 0.32 68 1015.8
20260505224555 55 15 1.0 5.0 0.00 0.85 0.32 69 1015.8
20260505224055 55 0 1.0 4.0 0.00 0.85 0.32 70 1015.8
20260505223555 55 14 1.0 5.0 0.00 0.85 0.32 69 1015.9
20260505223103 55 15 1.0 5.0 0.00 0.85 0.32 72 1015.8
20260505222556 55 15 1.0 7.0 0.00 0.85 0.32 74 1015.8
20260505222057 54 15 1.0 7.0 0.00 0.85 0.32 77 1015.8
20260505221608 53 15 0.0 3.0 0.00 0.85 0.32 80 1015.8
20260505221056 53 0 1.0 5.0 0.00 0.85 0.32 74 1015.9
20260505220600 53 15 1.0 5.0 0.00 0.85 0.32 76 1015.9
20260505220138 53 16 1.0 4.0 0.00 0.85 0.32 75 1015.9
20260505215557 53 15 0.0 5.0 0.00 0.92 0.32 79 1016.0
20260505215056 52 15 1.0 5.0 0.00 0.92 0.32 79 1015.8
20260505214616 51 15 0.0 3.0 0.00 0.92 0.32 83 1015.9
20260505214055 50 15 0.0 3.0 0.00 0.92 0.32 85 1016.0
20260505213558 49 0 0.0 3.0 0.00 0.92 0.32 86 1016.0
20260505213056 49 15 1.0 3.0 0.00 0.92 0.32 84 1016.0
20260505212558 49 0 0.0 2.0 0.00 0.92 0.32 83 1016.3
20260505212056 49 0 0.0 2.0 0.00 0.92 0.32 82 1016.2
20260505211613 49 0 0.0 2.0 0.00 0.92 0.32 85 1016.4
20260505211056 49 13 0.0 2.0 0.00 0.92 0.32 84 1016.3
20260505210557 49 0 0.0 3.0 0.00 0.92 0.32 85 1016.2
20260505210058 49 5 0.0 4.0 0.00 0.92 0.32 88 1016.2
20260505205557 49 0 1.0 4.0 0.00 1.01 0.32 89 1016.2
20260505205056 49 13 1.0 3.0 0.00 1.01 0.32 85 1016.2
20260505204558 49 0 0.0 3.0 0.00 1.01 0.32 89 1016.1
20260505204056 48 0 0.0 2.0 0.00 1.01 0.32 93 1016.1
20260505203556 47 0 0.0 2.0 0.00 1.01 0.32 89 1016.1
20260505203059 47 0 0.0 3.0 0.00 1.01 0.32 91 1016.1
20260505202556 47 15 0.0 3.0 0.00 1.01 0.32 92 1016.0
20260505202100 46 15 0.0 2.0 0.00 1.01 0.32 91 1016.1
20260505201607 46 15 0.0 2.0 0.00 1.01 0.32 90 1016.0
20260505201056 46 0 0.0 2.0 0.00 1.01 0.32 92 1016.3
20260505200557 46 0 0.0 2.0 0.00 1.01 0.32 91 1016.2
20260505200104 46 0 0.0 3.0 0.00 1.01 0.32 90 1016.2
20260505195555 46 0 1.0 3.0 0.00 1.10 0.32 92 1016.1
20260505195056 46 13 0.0 2.0 0.00 1.10 0.32 94 1016.2
20260505194606 45 0 0.0 2.0 0.00 1.10 0.32 94 1016.2
20260505194057 44 0 0.0 2.0 0.00 1.10 0.32 94 1016.0
20260505193556 44 175 0.0 2.0 0.00 1.10 0.32 94 1016.0
20260505193056 44 0 0.0 3.0 0.00 1.10 0.32 93 1016.0
20260505192556 44 0 0.0 3.0 0.00 1.10 0.32 92 1016.0
20260505192100 44 0 0.0 2.0 0.00 1.10 0.32 94 1016.0
20260505191557 44 0 0.0 2.0 0.00 1.10 0.32 94 1016.0
20260505191056 44 0 0.0 2.0 0.00 1.10 0.32 94 1016.0
20260505190557 44 0 0.0 2.0 0.00 1.10 0.32 95 1015.9
20260505190107 44 0 0.0 2.0 0.00 1.10 0.32 95 1016.0
20260505185557 44 261 0.0 2.0 0.00 1.10 0.32 95 1015.9
20260505185058 44 0 0.0 2.0 0.00 1.10 0.32 95 1015.8
20260505184600 43 0 0.0 0.0 0.00 1.10 0.32 97 1015.8
20260505184057 43 0 0.0 0.0 0.00 1.10 0.32 96 1015.8
20260505183616 42 0 0.0 0.0 0.00 1.10 0.32 95 1015.7
20260505183059 42 0 0.0 0.0 0.00 1.10 0.32 96 1015.7
20260505182556 42 0 0.0 0.0 0.00 1.10 0.32 96 1015.7
20260505182056 42 0 0.0 0.0 0.00 1.10 0.32 97 1015.7
20260505181556 42 0 0.0 0.0 0.00 1.10 0.32 97 1015.7
20260505181056 42 0 0.0 0.0 0.00 1.10 0.32 97 1015.7
20260505180556 42 0 0.0 0.0 0.00 1.10 0.32 97 1015.7
20260505175556 42 0 0.0 0.0 0.00 1.10 0.32 98 1015.5
20260505175056 41 0 0.0 0.0 0.00 1.10 0.32 98 1015.4
20260505174555 41 0 0.0 0.0 0.00 1.10 0.32 98 1015.4
20260505174056 41 0 0.0 0.0 0.00 1.10 0.32 98 1015.4
20260505173555 41 0 0.0 3.0 0.00 1.10 0.32 98 1015.2
20260505173058 41 0 0.0 3.0 0.00 1.10 0.32 98 1015.2
20260505172556 41 0 0.0 3.0 0.00 1.10 0.32 98 1015.0
20260505172056 40 0 0.0 1.0 0.00 1.10 0.32 98 1015.0
20260505171554 40 0 0.0 1.0 0.00 1.10 0.32 98 1015.0
20260505171057 40 0 0.0 1.0 0.00 1.10 0.32 98 1015.0
20260505170556 40 0 0.0 0.0 0.00 1.10 0.32 98 1015.0
20260505170101 40 0 0.0 0.0 0.00 1.10 0.32 98 1015.0
20260505165556 39 0 0.0 0.0 0.00 1.10 0.32 98 1014.9
20260505165056 39 0 0.0 0.0 0.00 1.10 0.32 98 1014.8
20260505164623 39 0 0.0 0.0 0.00 1.10 0.32 98 1014.9
20260505164057 39 0 0.0 0.0 0.00 1.10 0.32 98 1014.8
20260505163556 39 0 0.0 1.0 0.00 1.10 0.32 98 1014.8
20260505163059 39 0 0.0 1.0 0.00 1.10 0.32 98 1014.6
20260505162556 39 0 0.0 1.0 0.00 1.10 0.32 98 1014.6
20260505162056 38 0 0.0 1.0 0.00 1.10 0.32 98 1014.6
20260505161602 38 0 0.0 0.0 0.00 1.10 0.32 98 1014.6
20260505161057 38 0 0.0 1.0 0.00 1.10 0.32 98 1014.5
20260505160559 38 0 0.0 1.0 0.00 1.10 0.32 98 1014.5
20260505160109 38 0 0.0 1.0 0.00 1.10 0.32 98 1014.5